Date,TemperatureHighF,TemperatureAvgF,TemperatureLowF,DewpointHighF,DewpointAvgF,DewpointLowF,HumidityHigh,HumidityAvg,HumidityLow,PressureMaxIn,PressureMinIn,WindSpeedMaxMPH,WindSpeedAvgMPH,GustSpeedMaxMPH,PrecipitationSumIn
2013-1-6,50.1,49.8,49.8,48.5,48.1,48.1,94,94,94,30.36,30.32,10,3,10,0.06
2013-1-7,51.9,50.8,49.8,50.5,49.4,48.1,95,95,94,30.32,30.12,14,5,14,0.98
2013-1-8,52.3,47.2,39.3,51.2,44.3,36.3,96,90,80,30.43,30.13,7,2,7,0.08
2013-1-9,45.6,39.6,33.9,43.7,36.9,31.3,93,90,88,30.40,30.13,3,0,3,0.35
2013-1-10,47.3,44.2,39.0,44.6,40.7,35.7,93,88,78,30.21,30.00,11,3,11,0.04
2013-1-11,49.8,45.8,39.0,47.6,43.2,36.3,94,91,87,30.21,29.78,10,2,10,0.10
2013-1-12,45.5,43.3,38.1,42.5,40.3,34.8,93,89,84,30.19,29.76,14,4,14,0.12
2013-1-13,45.1,39.8,35.2,41.8,37.0,32.8,91,90,87,30.36,30.19,114,2,114,0.00
2013-1-14,46.2,43.3,40.1,42.5,39.7,35.3,93,87,82,30.33,30.12,14,4,14,0.02
2013-1-15,45.1,41.1,37.2,41.6,37.6,33.1,93,87,82,30.16,29.75,13,2,13,0.12
2013-1-16,46.7,44.5,42.6,44.8,42.6,40.4,94,93,92,30.00,29.76,11,1,11,0.10
2013-1-17,48.9,45.9,43.1,47.0,43.8,40.7,94,92,90,30.00,29.38,114,2,114,0.86
2013-1-18,49.2,42.7,36.5,47.6,39.5,33.2,94,88,78,29.45,29.35,32,2,32,0.02
2013-1-19,41.5,38.5,36.5,39.2,35.7,33.2,92,90,88,29.68,29.39,114,2,114,0.06
2013-1-20,38.1,35.9,33.2,35.2,32.9,30.2,91,89,86,29.65,29.40,114,3,114,0.12
2013-1-21,39.3,35.7,32.3,36.1,32.5,29.4,90,88,86,29.52,29.43,114,2,114,0.18
2013-1-22,39.0,33.7,30.0,33.8,30.1,26.9,90,86,77,29.87,29.47,6,0,6,0.02
2013-1-23,39.5,36.2,31.8,37.4,33.6,28.6,92,90,87,29.95,29.72,114,3,114,0.20
2013-1-24,44.2,40.5,36.3,42.0,37.7,33.3,92,90,87,30.12,29.95,114,2,114,0.04
2013-1-25,49.8,45.8,42.6,48.4,43.2,37.0,95,91,81,29.98,29.47,114,9,114,1.14
2013-1-26,51.6,46.2,40.2,50.2,43.6,36.0,95,91,81,29.90,29.17,114,6,114,0.49
2013-1-27,48.0,40.4,36.3,46.3,36.3,32.8,94,85,73,29.71,29.19,114,9,114,0.24
2013-1-28,51.6,45.8,37.2,49.1,41.4,33.1,94,84,76,29.76,29.33,22,9,22,0.39
2013-1-29,53.4,48.7,45.1,52.0,46.3,40.8,95,91,82,29.63,29.34,23,5,23,0.55
2013-1-30,48.9,46.3,44.2,45.6,40.6,37.5,92,81,66,30.02,29.54,21,8,21,0.16
2013-1-31,49.6,45.1,41.9,43.4,39.9,37.4,88,82,74,30.01,29.77,29,7,29,0.18